Location: San Francisco
(37.7750°N, 122.4180°W)
Time: 01:02:39
(UTC-07:00)

Daily predictions for brighter satellites

Satellite Brightness Start Highest point End
(mag) Time Altitude Azimuth Time Altitude Azimuth Time Altitude Azimuth
Terra 4.3 00:11:00 17° NW 00:11:00 17° NW 00:12:25 10° NW
SL-16 R/B 4.0 00:28:45 26° NNE 00:28:45 26° NNE 00:31:10 10° NNE
CZ-4C R/B 3.6 00:29:54 10° NW 00:34:58 47° WNW 00:34:58 47° WNW
Cosmos 2333 Rocket 4.3 00:45:13 19° NW 00:45:21 19° NW 00:49:26 10° N
Cosmos 2237 Rocket 4.2 00:49:57 23° NW 00:49:57 23° NW 00:53:36 10° N
ATLAS 2AS CENTAUR R/B 3.4 01:07:36 59° NNE 01:07:36 59° NNE 01:14:01 10° NNE
CZ-2C R/B 4.4 01:00:41 10° N 01:03:19 28° N 01:03:19 28° N
ATLAS 3B R/B 3.7 01:36:27 10° NNW 01:40:31 39° NNW 01:40:31 39° NNW
Cosmos 2369 Rocket 3.9 01:47:03 10° NNW 01:49:47 29° N 01:49:47 29° N
USA 238 DEB 4.4 01:53:32 10° NNW 01:58:38 50° NNW 01:58:38 50° NNW
USA 238 4.4 01:53:38 10° NNW 01:58:47 51° NNW 01:58:47 51° NNW
Cosmos 1943 Rocket 3.6 02:05:45 10° N 02:09:23 34° NNE 02:09:23 34° NNE
USA 215 3.7 02:08:55 10° NE 02:14:19 58° N 02:14:19 58° N
SL-16 R/B 4.0 02:36:44 23° ESE 02:39:07 30° ENE 02:44:22 10° N
ADEOS Rocket 4.4 02:40:48 10° NE 02:46:12 31° E 02:46:59 30° ESE
USA 267 4.2 02:40:10 10° ESE 02:46:16 43° NE 02:52:22 10° NW
NOSS 3-4 (A) 3.7 02:57:12 66° N 02:57:12 66° N 03:02:51 10° NNE
NOSS 3-4 (C) 3.7 02:57:17 66° N 02:57:17 66° N 03:02:58 10° NNE
NOSS 3-2 (A) 3.9 03:05:33 10° NW 03:13:11 75° WSW 03:13:30 74° SW
Aureole 1 Rocket 4.3 03:16:56 42° N 03:16:56 42° N 03:19:55 10° N
Lacrosse 5 rocket 3.2 03:17:23 31° E 03:17:23 31° E 03:20:15 10° NE
NPP 4.3 03:21:54 10° N 03:26:10 47° NW 03:26:10 47° NW
Nadezhda 3 Rocket 3.9 03:30:44 70° WNW 03:30:44 70° WNW 03:36:58 10° N
Resurs 1-4 Rocket 2.2 03:25:30 10° NNE 03:30:41 70° E 03:30:41 70° E
Spot 4 Rocket 4.0 03:29:36 10° NNE 03:34:25 77° NNE 03:34:25 77° NNE
USA 32 4.4 03:35:07 55° ESE 03:35:38 58° E 03:40:47 10° NNE
RESURS DK-1 3.8 03:37:33 32° N 03:37:33 32° N 03:40:00 10° NNE
Cosmos 921 Rocket 4.5 03:33:05 10° N 03:37:16 37° ENE 03:39:02 26° ESE
Cosmos 2056 Rocket 4.1 03:35:43 10° N 03:40:56 54° ENE 03:43:40 27° SE
CZ-2D R/B 2.0 03:36:11 10° NNE 03:41:30 86° ESE 03:41:35 85° SE
Cosmos 1680 Rocket 4.5 03:43:51 36° NW 03:43:51 36° NW 03:48:01 10° N
Cosmos 1953 Rocket 3.8 03:49:33 69° ENE 03:49:33 69° ENE 03:53:43 10° NNE
SL-27 R/B 4.3 03:50:59 28° N 03:50:59 28° N 03:52:52 10° N
ADEOS 3.4 03:47:24 10° N 03:52:37 75° WNW 03:52:48 74° W
Cosmos 2082 Rocket 4.2 03:50:19 12° SE 03:54:03 22° E 03:58:22 10° NE
Cosmos 1943 Rocket 4.3 03:50:15 10° NW 03:50:52 12° NW 03:50:52 12° NW
COSMOS 2455 2.7 03:49:16 10° NW 03:55:09 62° WSW 03:55:09 62° WSW
IRS-1D 3.6 03:53:58 10° N 03:59:07 62° WNW 03:59:23 61° W
MOZ.5/SAFIR/RUBIN 5/SL-8 4.4 03:57:43 25° SE 04:00:13 54° ENE 04:04:47 10° N
COSMOS 2406 3.6 03:59:48 44° WNW 04:00:15 45° WNW 04:05:46 10° N
CZ-2D R/B 3.7 03:59:32 10° NNE 04:03:33 60° E 04:03:47 58° ESE
Cosmos 1707 3.9 04:03:04 34° ESE 04:03:51 38° E 04:07:29 10° NNE
ARIANE 5 R/B 2.7 04:04:56 10° N 04:10:01 52° WNW 04:10:30 50° W
COBE Rocket 3.9 04:06:33 10° N 04:11:32 62° WNW 04:12:04 57° WSW
NOSS 2-2 (E) 3.7 04:11:37 55° NW 04:11:37 55° NW 04:16:10 10° NNE
Cosmos 1825 Rocket 4.3 04:12:23 40° NW 04:12:23 40° NW 04:15:58 10° N
Cosmos 1470 3.2 04:09:23 10° N 04:13:15 59° E 04:14:26 39° SE
Cosmos 1953 2.8 04:11:13 10° NNW 04:14:21 48° NW 04:14:21 48° NW
Cosmos 1371 Rocket 4.1 04:11:27 10° NNW 04:16:39 52° WSW 04:17:05 51° WSW
COSMOS 2487 3.3 04:17:47 42° SE 04:18:16 45° ESE 04:21:42 10° NNE
Cosmos 1821 Rocket 4.2 04:13:35 10° NNW 04:19:22 46° W 04:20:33 41° WSW
SL-16 R/B 2.9 04:21:49 39° WSW 04:22:32 40° W 04:28:18 10° NNW
Cosmos 1378 4.2 04:20:57 26° SE 04:22:33 41° E 04:26:06 10° NNE
UNKNOWN OBJECT B 2.9 04:22:54 10° N 04:26:50 55° WNW 04:27:03 54° W
Okean O Rocket 3.1 04:24:53 10° NNE 04:28:55 33° E 04:32:53 10° SSE
USA 267 3.3 04:22:45 10° SSE 04:29:06 55° SW 04:35:31 10° NW
Cosmos 1818 3.7 04:28:18 41° WSW 04:30:00 59° WNW 04:35:24 10° NNE
ADEOS Rocket 3.7 04:26:06 10° N 04:31:41 40° WNW 04:33:57 31° WSW
CENTAUR R/B 3.1 04:25:44 10° NW 04:33:46 81° WSW 04:42:13 10° SSE
Tiangong 1 1.9 04:35:40 36° NNW 04:36:10 41° NNE 04:38:51 10° E
ADEOS II 3.2 04:31:38 10° NNE 04:36:38 43° E 04:41:35 10° S
Cosmos 1605 Rocket 4.0 04:33:58 10° NNW 04:40:04 61° W 04:44:55 16° SSW
Cosmos 1934 Rocket 4.5 04:35:21 10° NNW 04:41:09 40° W 04:43:51 27° SW
Meteor 1-24 Rocket 4.5 04:36:48 10° SSE 04:42:01 51° E 04:47:27 10° NNE
Cosmos 1339 Rocket 4.4 04:40:01 23° SSW 04:43:55 69° W 04:50:01 10° N
Intercosmos 25 4.1 04:39:22 10° N 04:46:34 86° W 04:50:55 10° S
PSLV R/B 4.1 04:43:46 10° NNE 04:47:53 72° ESE 04:51:01 17° S
USA 161 2.7 04:49:30 28° WNW 04:49:30 28° WNW 04:51:19 10° NNW
Cosmos 1269 Rocket 4.5 04:44:59 13° S 04:49:36 60° ESE 04:54:48 10° NNE
Cosmos 1733 3.5 04:46:58 10° NNW 04:50:34 42° W 04:51:22 36° SW
Lacrosse 5 rocket 2.9 04:53:05 21° W 04:55:14 30° NW 04:59:21 10° NNE
Cosmos 389 Rocket 2.9 04:52:37 10° NNW 04:56:03 40° W 04:56:58 33° SW
Delta 2 Rocket 2.8 04:59:49 34° WSW 05:00:59 57° S 05:04:16 10° ESE
Cosmos 2098 Rocket 3.5 05:01:21 10° NW 05:03:07 22° WNW 05:03:07 22° WNW
CZ-4B DEB 4.5 04:58:58 10° NNE 05:04:28 69° ESE 05:09:54 10° S
Orbus 7S? 3.9 05:01:47 10° NNW 05:04:39 39° NE 05:07:08 10° ESE
Cosmos 1842 Rocket 3.5 05:01:20 10° N 05:05:46 84° W 05:10:11 10° S
MOS 1 Rocket 3.8 05:01:52 10° N 05:05:52 37° WNW 05:08:13 21° SW
CZ-4B R/B 3.1 05:01:59 10° NNE 05:06:20 88° WNW 05:10:49 10° SSW
Cosmos-2242 3.8 05:02:36 10° NNW 05:06:33 33° W 05:08:56 19° SW
Cosmos 1697 Rocket 3.6 05:02:06 10° NNW 05:07:35 51° ENE 05:13:02 10° SE
Cosmos 1000 Rocket 4.5 05:01:55 10° S 05:08:03 89° E 05:14:18 10° N
EO 1 Del DPAF 4.2 05:05:32 10° SSE 05:09:16 51° ENE 05:13:01 10° N
Resurs 1-4 Rocket 3.9 05:07:16 10° NNW 05:09:59 14° WNW 05:11:47 12° W
Cosmos 839 Rocket 4.4 05:04:18 10° NW 05:10:36 55° WSW 05:18:10 10° S
Cosmos 2100 Rocket 3.9 05:05:09 10° N 05:11:22 82° W 05:17:30 10° S
Cosmos 2278 3.7 05:06:33 10° NNW 05:12:14 68° WSW 05:17:53 10° S
PSLV R/B 3.6 05:09:06 10° NNE 05:13:30 84° ESE 05:17:48 10° S
Cosmos 2173 Rocket 4.0 05:12:09 10° N 05:18:27 80° W 05:24:37 10° S
Cosmos 2369 3.7 05:14:08 10° NNW 05:19:46 60° WSW 05:25:23 10° S
CZ-2D R/B 4.1 05:19:06 10° NW 05:20:46 11° WNW 05:22:27 10° WNW
Meteor 2-5 Rocket 4.3 05:17:46 13° SW 05:22:26 40° WNW 05:27:53 10° N
Cosmos 1674 4.5 05:21:59 10° SSE 05:25:24 34° E 05:28:53 10° NNE
Cosmos 2221 3.1 05:21:54 10° N 05:26:09 61° E 05:30:21 10° SSE
Cosmos 2061 Rocket 4.0 05:30:17 10° NNW 05:36:24 61° W 05:42:27 10° S
Cosmos 2082 Rocket 2.6 05:32:18 10° SW 05:37:45 46° WNW 05:43:15 10° N
Cosmos 1833 Rocket 3.0 05:33:15 10° SW 05:38:40 49° WNW 05:44:06 10° NNE
Meteor PRIRODA 3.7 05:35:15 10° NNE 05:38:58 87° ESE 05:42:38 10° SSW
Cosmos 158 Rocket 4.2 05:35:33 10° SW 05:40:22 49° WNW 05:45:21 10° N
CZ-2C R/B 3.6 05:36:01 10° S 05:40:25 69° WSW 05:44:52 10° NNW
Okean-O 3.4 05:36:14 10° NNE 05:40:36 55° E 05:44:57 10° S
Cosmos 1980 Rocket 3.0 05:35:44 10° NNW 05:41:22 58° ENE 05:46:56 10° SE
Meteor 2-1 Rocket 4.3 05:38:19 10° NNW 05:43:55 62° W 05:49:34 10° S
Cosmos 1656 3.7 05:38:56 10° NNW 05:44:12 52° WSW 05:49:26 10° S
Meteor 1-31 Rocket 3.1 05:40:36 10° NNE 05:44:31 74° ESE 05:48:26 10° S
CZ-4B R/B 3.4 05:41:40 10° N 05:46:49 49° WNW 05:51:53 10° SW
DELTA 2 R/B(2) 3.6 05:46:32 10° SW 05:48:06 42° SSE 05:50:05 10° E
ERS-2 2.9 05:46:43 10° NNE 05:50:21 55° ESE 05:53:57 10° S
Okean 3 Rocket 3.8 05:47:19 10° SSW 05:51:35 51° W 05:55:54 10° N
Cosmos 2123 Rocket 4.0 05:46:37 10° SSW 05:52:54 73° W 05:59:13 10° N
Cosmos 494 Rocket 4.3 05:48:19 10° S 05:53:24 72° ESE 05:58:31 10° NNE
Cosmos 2016 Rocket 4.2 05:50:06 10° NNW 05:56:10 55° W 06:02:17 10° SSW
